Temperature
11 11 11 11 11 12 12 12 12 12 12 12 12 12 12 12 12 12 12 12 12 12 12 12 12 12 12 11 11 11 11 10 10 10 10 9 9 9 9 9 9 9 8
10 10 11 11 11 11 11 11 11 11 11 11 11 11 11 11 11 11 11 11 11 11 11 11 11 11 11 11 11 11 10 10 10 10 9 9 9 8 8 8 8 8 8
9 10 10 10 10 10 10 11 11 11 11 11 11 11 11 11 11 11 11 11 11 11 11 11 11 11 11 11 10 10 10 10 10 9 9 8 8 8 8 8 8 8 7
9 9 9 10 10 10 10 10 10 10 11 11 11 11 11 10 11 10 10 10 10 10 10 10 10 10 10 10 10 10 10 10 9 9 9 9 8 8 7 7 7 7 7
9 9 9 9 9 9 9 10 10 10 10 10 10 10 10 10 10 10 10 10 10 10 10 10 10 10 10 10 9 9 9 9 9 9 9 8 8 8 7 7 7 7 7
8 8 8 9 9 9 9 9 9 9 10 10 10 10 10 10 10 9 9 9 9 9 9 9 9 9 9 9 9 9 9 9 9 8 8 8 7 7 7 7 6 6 6
8 8 8 8 8 8 9 9 9 9 9 9 9 9 9 9 9 9 9 9 9 9 9 9 9 9 9 9 9 8 8 8 8 8 8 7 7 7 7 6 6 6 6
7 7 8 8 8 8 8 8 8 9 9 9 8 8 8 8 8 8 8 8 8 8 8 8 8 8 8 8 8 8 8 8 8 7 7 7 7 6 6 6 5 5 5
7 7 7 7 7 7 8 8 8 8 8 8 8 8 8 8 8 8 8 8 8 8 8 8 8 8 8 8 8 8 7 7 7 7 7 6 6 6 6 5 5 4 4
6 7 7 7 7 7 7 7 7 7 7 7 7 7 7 7 7 7 7 7 8 8 7 7 7 7 7 7 7 7 7 7 6 6 6 6 6 5 5 5 5 4 3
6 6 6 6 6 6 7 7 7 7 7 7 7 7 7 7 7 7 7 7 7 7 7 7 7 7 7 7 7 6 6 6 6 6 5 5 5 5 5 4 4 4 3
5 6 6 6 6 6 6 6 6 6 6 6 6 6 6 6 6 6 6 6 6 6 7 6 6 6 6 6 6 6 6 6 5 5 5 5 5 4 4 4 4 3 3
5 5 5 5 5 5 5 6 6 6 6 6 6 6 6 6 6 6 6 6 6 6 6 6 6 6 6 6 6 5 5 5 5 5 5 4 4 4 4 3 3 3 3
4 4 4 4 4 5 5 5 5 5 5 5 5 5 5 5 5 5 5 5 5 5 5 5 5 5 5 5 5 5 5 4 4 4 4 4 4 3 3 3 3 2 2
3 4 4 4 4 4 4 4 4 4 4 4 5 5 4 4 4 5 5 5 5 5 5 5 5 5 4 4 4 4 4 4 4 4 4 3 3 3 2 2 2 2 1
3 3 3 3 3 3 3 4 4 4 4 4 4 4 4 4 4 4 4 4 4 4 4 4 4 4 4 4 4 4 3 3 3 3 3 3 2 2 2 2 1 1 1
2 3 3 3 3 3 3 3 3 3 3 3 3 3 3 3 3 3 3 3 3 3 3 3 3 3 3 3 3 3 3 3 3 3 2 2 2 1 1 1 1 1 0
2 2 2 2 2 2 2 3 3 2 2 2 2 3 2 2 2 3 3 3 3 3 3 2 3 3 3 3 2 2 2 2 2 2 2 2 1 1 1 1 0 0 0
2 2 2 2 2 2 2 2 2 2 2 2 2 2 2 2 2 2 2 2 2 2 2 2 2 2 2 2 2 2 2 2 2 2 1 1 1 0 0 -0 -0 -0 -0
1 1 1 1 1 1 1 1 1 1 1 1 1 1 1 1 1 1 1 1 1 1 1 1 1 1 1 1 1 1 1 1 1 1 1 0 0 -0 -0 -1 -1 -0 -0
1 1 1 1 1 1 1 0 0 0 0 0 1 1 1 1 1 1 1 1 1 1 1 1 1 1 1 1 1 1 1 1 1 0 0 -0 -0 -1 -1 -1 -1 -1 -1
0 0 0 0 -0 -0 -0 -0 -0 -0 -0 -0 0 -0 0 0 0 0 0 0 0 1 1 0 0 0 0 0 0 0 0 0 0 -0 -0 -1 -1 -1 -1 -1 -1 -2 -2
-0 -0 -1 -1 -1 -1 -1 -1 -1 -1 -1 -1 -1 -1 -1 -0 -0 -0 -0 -0 0 0 -0 -0 -0 -0 -0 -0 -0 -0 -0 -0 -1 -1 -1 -1 -1 -1 -1 -2 -2 -2 -2
-1 -1 -1 -1 -1 -1 -1 -1 -1 -1 -1 -1 -1 -1 -1 -1 -1 -1 -1 -0 -0 -1 -1 -1 -1 -1 -1 -1 -1 -1 -1 -1 -1 -1 -1 -2 -2 -2 -2 -2 -2 -2 -2
-1 -1 -1 -1 -2 -2 -2 -2 -2 -2 -1 -1 -1 -1 -1 -1 -1 -1 -1 -1 -1 -1 -1 -1 -1 -1 -1 -1 -1 -2 -2 -2 -2 -2 -2 -2 -2 -2 -2 -2 -3 -3 -3
-2 -2 -2 -2 -2 -2 -2 -2 -2 -2 -2 -2 -2 -2 -2 -2 -2 -2 -2 -2 -2 -2 -2 -2 -1 -1 -1 -2 -2 -2 -2 -2 -2 -2 -2 -2 -3 -3 -3 -3 -3 -3 -3
Wind_Speed
4 3 2 3 5 4 5 5 6 6 6 5 4 4 3 3 2 4 5 6 6 7 7 5 4 5 3 3 3 2 2 1 1 1 2 3 2 1 1 0 1 1 1
2 2 2 3 4 4 4 5 5 5 5 4 4 3 3 2 2 3 4 5 5 5 6 6 4 4 3 3 3 3 2 1 1 1 1 1 3 2 2 1 1 0 1
6 4 4 4 3 4 4 4 4 4 4 5 4 3 3 2 2 2 2 4 5 5 4 5 5 4 3 3 3 3 3 2 0 1 2 2 2 3 3 2 1 1 1
5 5 5 4 4 3 2 3 3 3 4 5 5 6 4 4 3 3 3 3 5 5 4 5 6 4 3 3 3 2 2 3 2 0 0 1 2 1 2 3 3 3 3
6 6 6 5 4 3 3 2 3 3 3 4 5 6 4 2 3 3 3 3 3 5 5 5 5 4 3 3 2 2 2 2 2 1 0 0 1 1 1 3 3 3 3
5 5 4 4 3 3 2 2 3 3 3 3 4 5 5 5 5 5 4 3 2 2 4 5 5 5 4 3 3 2 2 2 2 1 1 1 1 1 1 2 3 4 3
5 5 4 4 3 3 3 2 3 2 2 3 4 4 5 6 7 6 5 4 3 2 3 3 4 4 4 4 4 3 2 2 2 2 1 1 1 1 1 1 2 3 3
5 5 6 5 5 4 4 3 3 3 3 3 3 3 4 4 4 5 5 4 3 3 3 4 4 5 5 4 4 3 2 2 2 2 1 1 1 1 1 1 1 2 3
4 4 4 5 5 4 4 4 4 3 3 3 3 3 4 3 3 3 4 3 2 2 4 4 4 4 4 4 3 2 2 2 2 2 1 1 1 1 1 1 1 2 3
3 3 3 4 4 4 4 4 4 4 4 3 3 3 4 4 4 3 3 3 3 3 3 3 3 4 4 4 3 2 1 2 2 1 1 1 1 1 1 1 1 1 2
4 4 3 3 3 2 3 3 3 3 3 3 3 3 3 3 3 3 3 3 3 3 3 3 3 3 3 3 3 2 3 2 2 2 2 2 1 0 1 1 1 1 2
4 4 4 3 2 2 2 3 3 3 4 4 3 3 3 3 3 3 3 3 3 3 3 3 2 3 3 3 3 3 3 3 3 3 2 2 1 1 1 1 2 2 2
2 2 2 2 2 2 2 2 2 3 3 4 3 3 4 4 4 3 2 3 3 3 3 3 3 3 3 3 4 4 3 3 3 3 3 3 2 2 2 2 2 2 3
2 2 2 2 2 2 2 2 2 2 2 3 3 4 4 4 4 3 3 2 3 3 3 3 3 3 3 3 3 3 3 3 3 3 3 3 3 4 3 3 3 3 3
2 2 3 2 2 1 2 2 2 2 2 3 3 3 3 3 3 3 3 2 2 2 2 2 2 2 3 3 4 3 3 3 3 2 3 3 3 4 3 3 3 3 3
2 2 2 2 2 2 2 2 2 2 2 2 3 2 2 3 3 3 2 2 2 2 2 2 3 3 2 4 4 3 3 3 3 3 3 2 3 4 5 5 5 4 4
3 2 2 2 2 3 3 3 2 2 2 2 2 2 2 2 2 2 2 2 2 2 2 1 2 2 3 4 4 3 2 2 2 3 2 2 2 3 3 4 5 5 6
3 2 2 2 2 2 1 1 2 2 2 2 2 2 2 2 2 2 2 2 2 2 2 2 2 2 2 3 3 2 2 2 2 2 2 2 3 3 2 2 3 3 4
3 2 2 2 1 1 1 1 1 1 1 1 1 2 2 2 2 2 2 2 2 2 2 2 2 2 2 2 2 1 1 1 1 2 2 2 3 4 4 2 2 3 4
1 1 1 0 1 1 1 2 1 1 1 1 1 1 2 2 3 3 2 2 2 2 1 1 1 2 2 2 2 1 1 1 1 1 2 3 3 4 4 2 2 3 4
1 0 0 0 1 1 1 1 1 1 1 1 1 1 1 2 2 2 2 2 2 1 1 1 0 1 1 1 1 2 1 2 1 2 2 2 3 4 4 3 2 3 3
1 1 1 1 1 0 2 1 1 1 1 1 0 0 0 1 1 2 2 2 2 2 2 1 0 0 0 0 1 2 2 2 1 2 2 2 3 3 2 2 2 3 3
1 1 0 1 2 1 1 1 1 1 1 1 1 1 0 1 1 2 2 2 2 2 2 2 2 1 1 1 2 2 2 2 1 1 1 1 1 2 1 2 2 3 2
1 1 0 1 2 2 1 1 1 1 1 1 1 1 1 1 1 1 2 2 3 3 2 2 2 1 1 1 1 0 1 1 1 0 1 1 2 2 2 2 2 2 2
2 1 1 1 2 2 1 1 0 1 1 2 1 1 1 2 1 1 1 2 2 3 3 3 3 3 2 3 2 2 1 1 1 1 1 1 1 2 2 2 2 2 2
1 1 1 1 2 1 1 2 1 0 2 2 1 1 1 1 1 1 1 1 0 0 1 2 2 2 3 3 2 2 2 0 2 2 1 0 1 1 1 2 2 2 3
Wind_Direction
196 164 141 136 127 134 138 145 150 153 149 148 145 144 154 159 150 147 146 143 145 152 146 142 140 143 153 155 147 136 124 85 103 73 11 348 340 335 326 98 82 42 21
179 160 144 137 141 146 146 145 148 159 161 163 161 156 149 152 159 145 143 147 148 152 156 150 152 147 144 141 141 133 131 94 86 113 99 339 327 322 318 303 262 298 358
184 185 165 155 152 148 156 156 163 163 160 152 141 127 106 103 116 143 166 157 156 155 151 153 145 143 146 157 156 150 148 163 217 106 142 158 240 295 305 301 286 285 292
179 181 172 159 162 164 155 153 164 164 158 150 156 162 171 178 193 182 174 156 152 150 145 149 141 138 144 155 161 152 154 153 168 15 29 171 172 199 293 308 309 294 280
183 179 179 175 171 165 162 162 170 164 165 164 168 172 178 180 160 152 157 165 151 149 149 152 143 137 137 139 136 140 142 157 172 177 170 41 40 158 208 276 297 304 278
183 179 177 172 167 161 158 160 161 172 172 176 178 176 171 165 161 166 168 175 166 156 146 146 143 144 143 145 150 138 147 163 159 165 176 175 191 228 216 256 284 285 285
182 183 182 187 181 178 173 170 170 183 184 183 184 182 180 175 177 177 173 171 175 185 179 151 155 153 152 151 146 144 160 179 177 186 206 213 230 221 213 236 277 288 291
181 189 193 193 192 192 184 180 186 191 189 187 186 184 178 174 179 176 174 178 186 184 167 154 153 157 156 150 144 147 174 168 181 187 199 223 251 235 218 209 247 299 297
188 191 194 194 195 192 192 191 190 193 198 191 174 178 175 166 166 169 166 165 169 162 150 152 151 153 148 146 144 158 169 158 172 179 186 219 247 258 248 213 207 220 278
200 197 200 209 207 200 198 194 195 198 200 185 175 177 176 165 161 164 172 165 160 156 150 147 149 149 142 141 143 160 159 156 176 181 183 219 253 280 276 254 248 232 244
212 209 217 223 215 200 196 198 200 203 198 185 181 169 173 161 160 163 171 171 166 167 165 161 157 162 163 155 162 176 170 170 187 189 192 221 221 221 282 283 268 262 246
212 203 212 219 215 209 207 201 199 204 196 188 183 180 167 162 164 163 167 163 165 166 162 155 169 177 175 167 171 185 185 183 194 203 202 232 232 225 260 272 270 263 255
213 193 194 204 216 219 214 210 210 207 193 177 175 180 168 172 169 166 172 165 166 170 167 163 178 184 188 188 190 191 194 199 204 202 206 223 219 241 257 260 264 267 281
188 184 198 205 208 213 209 212 219 206 192 178 175 179 180 180 176 170 181 179 177 181 187 186 190 187 191 197 196 193 196 203 212 209 213 220 224 232 244 255 263 272 284
221 214 212 204 203 205 214 213 204 198 187 179 189 193 184 172 166 166 183 184 184 195 195 184 188 186 199 199 191 196 199 202 215 220 221 229 248 260 263 270 267 268 274
250 245 239 222 211 208 213 207 208 207 181 185 205 191 171 165 168 174 178 169 182 192 186 194 190 193 216 206 205 199 194 203 212 228 238 241 250 268 277 280 281 276 272
249 240 243 240 239 235 213 203 207 195 174 190 197 180 164 164 173 172 172 177 190 186 188 211 195 198 214 210 213 218 192 200 215 227 234 257 270 279 267 282 295 294 289
261 257 251 258 264 258 234 192 180 178 185 191 185 173 172 183 183 170 184 189 182 190 198 213 197 198 219 214 210 205 179 201 217 224 226 242 259 264 268 273 288 294 294
246 242 247 250 253 244 214 170 168 170 187 186 183 194 192 192 186 187 204 199 183 197 206 207 187 184 223 216 208 213 178 189 225 235 227 234 247 272 287 287 289 303 307
260 249 257 276 236 238 170 157 178 183 196 202 220 219 206 196 197 197 205 201 190 201 206 199 187 192 216 214 217 240 199 196 242 255 247 256 263 278 292 282 272 287 298
275 167 141 284 261 235 139 153 179 208 221 216 219 225 221 209 197 183 195 187 174 166 177 163 201 208 196 194 235 275 253 212 230 253 266 267 274 285 293 303 278 284 310
341 6 18 319 309 215 145 149 203 209 159 152 185 235 202 204 193 163 177 179 164 165 170 161 186 243 197 247 256 286 290 258 239 249 259 273 292 307 320 341 341 342 347
297 337 358 325 323 312 158 163 241 191 146 147 169 198 215 200 200 176 176 177 174 178 187 189 195 240 284 272 284 291 302 308 291 250 262 299 327 349 3 7 359 359 344
255 280 265 314 324 331 348 198 216 166 145 158 174 177 164 180 191 196 187 190 193 186 195 198 197 213 253 276 285 283 335 342 341 32 88 55 33 30 33 19 2 355 337
270 261 236 247 291 314 334 320 285 150 146 149 161 167 167 168 174 216 227 224 223 205 199 199 194 194 223 251 271 289 276 238 188 109 89 38 30 28 14 6 7 359 351
264 275 274 270 284 299 306 305 295 205 150 142 143 159 167 166 164 155 76 25 222 218 213 205 206 215 223 232 253 284 304 271 139 115 103 57 20 8 351 343 345 350 350
Height
1497 1499 1501 1502 1504 1506 1508 1510 1512 1514 1516 1518 1519 1520 1522 1524 1526 1528 1530 1531 1533 1534 1535 1536 1536 1537 1538 1538 1538 1539 1539 1538 1538 1538 1537 1536 1536 1535 1535 1534 1533 1532 1531
1495 1497 1499 1501 1502 1503 1505 1507 1509 1511 1513 1515 1517 1518 1520 1522 1523 1525 1527 1528 1530 1532 1533 1533 1533 1534 1535 1535 1535 1536 1536 1536 1536 1536 1535 1534 1534 1532 1532 1531 1530 1529 1528
1492 1494 1496 1498 1500 1501 1503 1505 1507 1509 1511 1513 1515 1516 1517 1519 1520 1521 1523 1525 1527 1529 1529 1530 1531 1531 1532 1532 1532 1533 1533 1533 1533 1533 1534 1532 1531 1530 1529 1528 1527 1527 1525
1489 1491 1493 1495 1497 1499 1501 1503 1505 1506 1508 1510 1511 1513 1513 1514 1516 1518 1520 1522 1524 1525 1527 1528 1528 1529 1529 1530 1530 1530 1530 1531 1530 1531 1531 1531 1529 1528 1526 1525 1524 1523 1522
1487 1489 1491 1493 1495 1497 1499 1500 1502 1503 1505 1507 1509 1510 1511 1512 1514 1515 1517 1519 1520 1522 1523 1525 1525 1526 1527 1527 1527 1528 1528 1528 1528 1528 1528 1527 1527 1526 1524 1521 1520 1520 1519
1484 1487 1489 1491 1492 1494 1496 1497 1498 1500 1501 1503 1505 1507 1508 1509 1510 1512 1513 1515 1517 1518 1520 1521 1522 1524 1524 1524 1524 1525 1525 1525 1525 1525 1525 1524 1523 1523 1521 1519 1517 1515 1515
1481 1483 1485 1487 1489 1491 1492 1494 1495 1497 1498 1500 1502 1503 1505 1506 1508 1509 1510 1512 1513 1515 1516 1517 1519 1520 1521 1522 1522 1521 1522 1522 1522 1522 1521 1521 1520 1520 1519 1517 1514 1512 1510
1479 1480 1482 1484 1486 1488 1489 1491 1493 1494 1495 1497 1498 1500 1502 1503 1505 1506 1508 1509 1511 1512 1513 1514 1515 1517 1517 1518 1518 1518 1519 1519 1519 1518 1518 1518 1517 1517 1516 1514 1512 1509 1506
1477 1478 1480 1482 1483 1485 1486 1488 1489 1491 1493 1494 1495 1496 1498 1500 1502 1503 1505 1506 1508 1509 1510 1511 1512 1513 1514 1515 1515 1515 1515 1515 1515 1515 1515 1514 1514 1513 1512 1511 1510 1509 1504
1474 1476 1478 1479 1480 1482 1483 1485 1486 1488 1490 1491 1492 1493 1495 1497 1499 1500 1501 1503 1504 1505 1506 1507 1509 1510 1511 1511 1512 1512 1512 1512 1511 1511 1511 1511 1510 1510 1509 1508 1507 1506 1504
1472 1473 1475 1477 1478 1479 1481 1482 1483 1485 1486 1487 1489 1490 1492 1493 1495 1497 1498 1500 1501 1502 1503 1504 1505 1506 1508 1508 1509 1509 1508 1508 1508 1507 1507 1507 1507 1506 1506 1504 1503 1502 1500
1469 1471 1473 1474 1475 1476 1478 1479 1480 1482 1483 1484 1486 1487 1488 1490 1492 1493 1495 1496 1498 1499 1500 1501 1502 1503 1504 1505 1505 1505 1505 1505 1505 1505 1504 1503 1503 1502 1502 1501 1500 1498 1497
1467 1468 1470 1471 1473 1474 1475 1476 1477 1478 1479 1481 1482 1483 1484 1486 1488 1489 1491 1493 1494 1495 1496 1497 1498 1499 1500 1501 1501 1502 1501 1502 1501 1501 1501 1500 1500 1499 1498 1497 1496 1494 1493
1465 1466 1467 1469 1470 1471 1472 1473 1474 1475 1476 1477 1479 1479 1481 1482 1484 1485 1487 1489 1490 1491 1493 1493 1495 1496 1496 1497 1498 1498 1498 1498 1498 1497 1497 1497 1496 1495 1494 1493 1492 1490 1489
1464 1465 1465 1466 1467 1468 1469 1471 1471 1472 1473 1474 1475 1476 1477 1479 1480 1482 1484 1485 1486 1488 1489 1490 1490 1491 1492 1493 1493 1494 1494 1494 1494 1493 1493 1493 1492 1491 1491 1489 1488 1487 1485
1463 1463 1463 1463 1464 1465 1466 1467 1468 1469 1469 1470 1471 1472 1473 1474 1476 1478 1480 1481 1482 1484 1485 1486 1486 1487 1488 1489 1490 1490 1490 1490 1490 1489 1489 1488 1488 1487 1487 1486 1485 1484 1482
1462 1462 1462 1462 1462 1463 1464 1464 1465 1466 1466 1467 1467 1468 1469 1471 1472 1474 1476 1477 1478 1480 1481 1482 1483 1483 1484 1485 1486 1487 1487 1486 1486 1485 1485 1484 1483 1483 1482 1481 1480 1479 1478
1461 1461 1461 1461 1461 1461 1461 1461 1462 1463 1463 1464 1464 1465 1466 1467 1469 1470 1472 1473 1474 1476 1477 1478 1479 1479 1480 1481 1482 1483 1483 1482 1482 1481 1480 1480 1479 1479 1478 1477 1476 1475 1474
1460 1460 1459 1459 1458 1459 1459 1459 1459 1460 1460 1460 1461 1462 1463 1464 1465 1466 1468 1469 1470 1472 1473 1474 1475 1476 1476 1477 1478 1479 1478 1478 1477 1477 1477 1476 1475 1475 1474 1473 1472 1471 1469
1459 1458 1457 1457 1456 1456 1457 1457 1456 1457 1457 1458 1459 1460 1461 1462 1462 1463 1465 1466 1467 1469 1470 1471 1472 1472 1473 1474 1474 1475 1474 1474 1473 1473 1473 1472 1472 1471 1470 1469 1468 1466 1465
1457 1456 1455 1455 1454 1454 1454 1454 1454 1454 1455 1455 1456 1457 1458 1459 1459 1460 1461 1463 1464 1466 1467 1468 1468 1469 1470 1470 1471 1471 1471 1470 1470 1469 1469 1468 1468 1468 1467 1466 1465 1464 1462
1455 1454 1453 1453 1452 1452 1452 1451 1451 1452 1452 1453 1453 1454 1455 1455 1456 1457 1458 1460 1461 1462 1463 1464 1465 1466 1467 1468 1468 1468 1468 1467 1467 1466 1466 1465 1465 1465 1464 1463 1462 1461 1460
1453 1453 1452 1451 1451 1450 1450 1449 1448 1449 1449 1449 1450 1451 1451 1452 1453 1454 1455 1457 1458 1459 1460 1461 1462 1463 1464 1465 1465 1465 1465 1464 1464 1463 1463 1463 1463 1462 1461 1460 1459 1458 1457
1452 1451 1450 1449 1448 1448 1448 1447 1446 1446 1445 1446 1446 1447 1448 1449 1451 1452 1453 1454 1455 1456 1457 1458 1459 1460 1461 1461 1462 1462 1461 1461 1461 1460 1460 1460 1460 1459 1458 1458 1457 1456 1454
1450 1449 1448 1447 1447 1446 1445 1445 1444 1443 1442 1443 1443 1444 1445 1446 1448 1449 1450 1452 1453 1454 1455 1455 1456 1457 1457 1458 1459 1459 1458 1458 1458 1458 1457 1457 1457 1456 1456 1455 1454 1453 1452
1448 1447 1446 1445 1444 1444 1443 1443 1442 1441 1441 1440 1441 1442 1443 1444 1445 1446 1447 1449 1450 1451 1452 1453 1454 1454 1455 1456 1456 1456 1456 1456 1456 1456 1455 1455 1454 1454 1453 1452 1451 1451 1449